Wind_Speed
87 82 76 77 58 48 47 48 46 47 49 52 51 53 60 60 63 65 69 71 68 63 54 54 51 48 45 39 39 40 33 32 24 20 23 23 26 23 23 24 23 16 12 13
83 63 53 46 42 41 41 42 44 48 46 45 50 55 60 63 66 59 61 59 57 55 50 47 43 39 37 35 35 34 27 25 17 19 25 26 23 17 18 19 22 18 17 17
53 49 44 43 43 42 43 43 40 38 39 41 43 47 52 53 51 47 46 44 43 43 39 35 32 32 33 31 31 28 23 19 12 15 20 19 27 17 16 18 22 21 20 16
39 41 35 37 39 37 38 39 38 37 37 37 35 38 44 42 41 42 42 39 37 32 27 26 23 28 28 28 27 22 18 10 7 8 12 14 23 16 13 18 24 24 21 20
36 33 31 32 35 33 34 31 33 35 35 35 36 33 39 39 40 39 35 37 30 22 20 18 21 22 26 25 23 19 14 5 2 2 8 14 15 16 23 21 31 33 27 25
35 35 32 32 33 33 31 32 31 31 35 38 38 29 37 35 37 31 30 29 21 13 13 16 18 19 23 23 16 16 11 3 3 2 6 9 10 16 19 32 35 37 34 30
38 36 33 32 32 33 33 35 35 32 32 31 32 30 33 32 28 21 26 24 16 9 11 13 15 18 20 20 11 13 9 2 6 11 3 10 9 12 14 34 38 37 37 30
42 39 40 36 35 36 35 37 35 37 32 29 30 29 33 29 22 21 25 21 11 8 10 12 13 15 17 17 8 9 7 2 8 7 9 8 8 10 15 31 36 34 40 41
44 41 45 36 36 34 34 35 36 33 36 29 31 30 31 29 25 24 24 21 10 8 8 11 12 13 13 12 5 5 5 1 8 11 13 12 12 11 14 29 34 36 36 36
47 43 49 41 35 34 36 35 36 32 33 28 30 31 29 27 26 21 20 18 12 9 8 8 11 11 11 10 3 4 4 2 3 16 17 14 11 15 15 26 30 31 35 32
53 49 51 46 35 37 32 35 37 33 32 26 29 30 27 25 24 15 15 17 13 9 8 8 10 9 10 8 2 2 2 1 1 20 19 16 18 12 15 22 24 30 34 29
58 55 52 51 41 35 35 40 34 33 31 29 28 28 24 26 21 14 17 14 14 14 9 8 11 8 9 6 2 2 1 1 4 17 25 17 15 12 10 15 9 24 30 31
64 59 56 51 40 39 44 38 34 33 26 28 28 26 26 20 18 14 17 13 13 13 13 6 11 7 6 4 0 3 2 2 5 15 24 21 16 17 18 12 23 24 25 28
73 65 54 46 49 49 44 39 35 35 26 27 29 25 25 24 15 16 15 17 18 18 16 7 10 8 5 4 2 5 2 1 7 9 23 22 20 22 15 19 17 21 22 19
73 64 58 53 54 54 45 40 36 36 33 25 30 26 22 27 14 16 12 19 21 20 12 11 9 9 5 3 4 3 6 4 8 10 17 24 18 17 16 14 21 22 23 17
73 65 61 56 57 55 46 39 29 38 36 26 29 33 22 24 18 11 11 21 22 16 10 10 9 6 7 4 3 3 8 9 9 13 16 18 18 17 18 14 12 17 21 16
75 69 65 59 59 60 37 37 40 43 33 28 27 36 24 24 20 13 12 20 21 17 14 10 8 4 6 7 5 3 6 12 10 12 16 18 17 17 20 13 18 17 14 13
81 76 71 66 64 51 41 45 45 41 34 33 26 34 29 25 23 11 13 22 21 18 18 12 10 6 4 5 8 6 5 8 13 12 12 14 16 18 18 14 15 16 19 20
86 80 75 71 64 52 46 47 47 45 41 35 27 31 32 26 25 19 16 19 24 26 22 16 13 10 5 7 6 10 9 7 8 11 16 14 14 12 11 10 11 12 13 14
91 86 83 72 67 53 49 49 52 49 37 36 33 33 32 28 29 25 23 18 20 25 28 20 15 16 12 9 9 8 13 12 11 9 11 16 20 18 17 14 13 12 12 15
97 93 85 77 70 58 54 53 52 48 39 43 41 34 31 32 39 35 24 23 24 21 29 23 21 19 15 15 12 8 8 14 14 13 12 12 13 18 20 20 18 18 19 20
100 97 89 81 71 59 56 53 48 47 49 47 43 33 32 37 41 41 32 28 26 26 35 27 22 22 19 18 13 11 8 13 16 17 16 14 13 13 15 16 17 17 16 16
102 96 87 82 68 63 59 57 57 52 50 51 45 35 32 39 39 38 38 33 30 32 34 32 24 22 24 20 19 14 10 15 12 14 16 16 16 14 14 16 16 17 16 15
103 98 93 88 73 67 63 62 60 57 55 56 48 39 34 46 42 39 35 41 40 32 30 30 31 31 27 24 20 18 16 17 15 12 12 12 13 17 19 19 18 20 21 21
107 104 98 89 78 72 68 66 63 58 56 55 51 48 42 45 52 53 39 37 40 37 33 29 30 31 30 28 24 19 20 19 17 15 15 15 15 14 16 19 20 21 21 21
108 106 101 90 84 77 70 67 64 61 58 57 54 52 49 45 51 56 52 38 42 39 36 34 36 35 32 32 32 26 23 24 21 19 16 15 17 19 18 17 17 18 18 19
Wind_Direction
282 286 284 287 288 286 284 279 276 275 277 274 276 280 283 284 285 288 292 295 297 298 301 307 314 320 322 324 331 334 333 330 344 3 7 15 20 32 37 32 30 51 87 105
282 280 276 283 283 283 283 281 279 278 285 287 276 278 280 282 287 292 295 296 295 296 301 308 315 320 319 326 333 332 334 327 344 356 6 16 27 25 29 36 42 50 67 79
273 273 277 281 282 281 281 279 279 282 288 287 285 283 280 282 287 295 294 296 297 300 304 312 320 317 318 330 334 331 334 322 353 18 21 27 16 37 52 59 61 63 64 76
272 272 277 275 277 280 278 281 283 284 285 284 281 278 279 286 291 291 296 300 300 304 314 319 318 315 321 333 333 331 332 311 353 23 36 41 17 43 44 69 71 74 75 89
270 276 279 284 283 286 287 298 295 287 287 282 285 292 292 287 287 294 301 302 304 316 318 312 310 315 329 333 331 331 331 287 272 64 35 64 48 64 77 74 86 76 77 92
274 279 281 285 287 292 298 301 300 291 284 283 290 289 283 291 295 311 307 306 308 316 302 302 307 328 334 331 329 328 330 271 197 110 69 92 54 85 82 81 85 76 76 84
271 276 279 277 286 289 294 299 305 303 292 291 283 285 291 294 304 318 304 306 306 284 297 295 311 337 336 327 327 327 332 265 187 106 62 124 100 98 79 92 86 80 72 83
265 270 268 275 280 286 293 297 302 304 304 291 285 281 291 296 315 307 301 301 286 274 290 294 317 340 335 327 319 330 335 339 172 134 126 147 116 80 90 94 89 85 76 77
257 262 267 274 277 286 291 299 301 299 301 290 286 287 296 294 299 305 298 294 258 260 275 306 324 338 332 330 304 349 316 1 177 167 149 146 108 104 91 105 98 91 79 83
251 256 266 268 274 281 288 295 296 299 297 283 280 291 295 293 302 305 306 301 260 236 275 308 325 335 327 335 281 337 307 338 154 171 152 143 119 136 92 115 106 97 91 78
249 254 261 266 269 274 287 287 289 300 297 306 284 290 292 287 296 311 316 305 240 223 278 310 323 327 318 338 277 346 303 281 86 171 173 170 150 149 111 126 105 110 96 89
246 247 254 259 267 274 278 276 289 296 304 305 288 286 279 279 299 321 314 282 244 227 265 299 309 310 311 335 252 279 3 187 73 165 166 172 164 162 149 156 107 134 116 118
248 248 249 261 268 270 266 277 289 294 303 301 286 289 274 279 293 312 306 245 259 230 239 288 292 286 299 320 282 190 58 172 93 161 163 168 170 169 173 151 121 147 139 126
245 247 252 258 260 262 268 273 281 285 299 302 285 288 273 274 289 291 295 251 268 233 232 251 274 278 278 298 265 190 212 155 117 132 168 160 176 180 172 176 154 150 149 153
244 245 248 250 256 264 269 270 277 287 293 299 287 274 270 273 284 287 276 263 240 243 231 261 251 282 262 289 277 193 200 189 144 126 161 173 164 168 188 197 184 168 171 161
243 243 244 245 253 260 261 268 281 279 283 293 290 268 257 271 275 286 241 244 244 248 239 256 254 290 269 266 249 243 190 180 159 145 156 167 183 189 198 186 193 192 197 193
242 244 246 246 250 253 264 266 261 267 283 296 290 270 262 266 263 273 221 231 239 219 225 216 216 223 291 257 259 223 207 187 182 160 166 177 181 191 196 207 212 223 222 208
241 242 243 245 247 252 252 255 258 267 279 280 283 265 255 260 262 254 245 232 235 221 222 223 225 195 268 266 252 237 213 202 198 197 180 173 181 190 205 203 202 214 222 225
240 241 243 243 246 244 248 255 258 260 267 280 283 276 263 249 252 258 239 233 238 238 232 227 237 240 245 260 237 239 222 207 204 208 209 198 190 182 180 182 191 206 213 219
239 241 243 243 245 246 244 246 253 257 269 278 276 274 263 240 242 235 240 234 236 237 231 233 244 243 245 245 234 221 230 217 209 203 208 208 207 201 212 206 203 202 198 201
237 239 242 243 242 240 241 244 249 258 264 265 270 274 260 236 235 236 231 245 243 237 228 229 238 238 242 240 230 220 228 226 217 208 212 212 208 214 217 221 224 227 229 229
238 240 240 240 239 238 241 245 249 252 258 263 268 266 244 231 239 240 235 242 237 227 214 227 228 237 242 245 237 224 216 237 219 217 213 211 215 217 216 221 227 228 227 226
235 238 239 239 237 234 236 238 241 246 255 260 261 258 245 225 232 234 230 232 237 235 235 239 236 241 243 244 238 224 210 239 233 226 222 223 221 219 225 223 222 223 225 228
234 236 235 236 234 235 234 236 238 241 248 257 261 258 243 225 222 230 226 231 236 235 235 238 237 237 242 241 244 236 218 234 233 224 233 230 225 228 227 226 227 233 233 233
232 234 234 234 232 232 234 237 240 241 250 254 257 257 247 234 226 232 234 229 237 234 228 230 226 229 233 237 239 242 232 232 242 239 234 245 243 237 237 237 237 241 242 241
232 233 235 235 232 232 234 236 239 240 244 252 253 256 249 243 229 232 235 231 234 232 224 227 224 223 228 229 232 243 242 240 241 243 241 244 250 248 245 245 246 247 250 251
Height
10765 10765 10752 10756 10757 10756 10751 10748 10745 10741 10738 10740 10744 10740 10733 10734 10729 10725 10723 10715 10710 10705 10700 10696 10691 10683 10676 10671 10663 10657 10650 10644 10638 10631 10625 10621 10617 10609 10603 10596 10590 10587 10586 10586
10753 10747 10745 10747 10745 10744 10741 10740 10735 10731 10732 10733 10734 10730 10724 10722 10718 10716 10712 10705 10700 10695 10692 10689 10684 10677 10672 10666 10660 10654 10650 10644 10639 10633 10628 10624 10620 10614 10609 10603 10597 10592 10590 10589
10739 10735 10739 10736 10735 10734 10733 10730 10729 10728 10724 10724 10723 10718 10713 10712 10712 10708 10700 10695 10690 10686 10684 10681 10677 10673 10668 10663 10658 10652 10650 10644 10640 10637 10634 10629 10625 10619 10614 10609 10603 10598 10596 10594
10727 10725 10728 10727 10724 10726 10724 10722 10722 10721 10719 10716 10714 10711 10705 10706 10703 10697 10692 10688 10683 10680 10678 10675 10673 10670 10665 10660 10656 10651 10650 10645 10642 10640 10640 10635 10631 10624 10619 10614 10609 10606 10604 10601
10713 10716 10718 10717 10715 10717 10715 10715 10714 10713 10712 10708 10706 10707 10699 10696 10692 10689 10687 10682 10677 10674 10672 10671 10670 10668 10661 10658 10654 10650 10649 10646 10643 10642 10643 10640 10638 10633 10628 10622 10616 10614 10611 10608
10703 10705 10708 10708 10708 10708 10708 10707 10706 10705 10703 10701 10701 10698 10688 10690 10685 10683 10681 10677 10673 10670 10669 10669 10669 10664 10659 10656 10653 10649 10648 10645 10644 10644 10645 10645 10643 10639 10635 10630 10625 10621 10618 10616
10693 10696 10698 10699 10701 10701 10702 10701 10700 10698 10694 10694 10692 10690 10686 10684 10681 10678 10675 10672 10669 10667 10667 10667 10666 10661 10657 10655 10652 10649 10647 10645 10645 10645 10646 10647 10646 10645 10642 10636 10633 10629 10626 10624
10685 10686 10685 10692 10695 10695 10696 10693 10694 10692 10690 10687 10685 10684 10680 10680 10678 10673 10670 10668 10666 10665 10665 10666 10663 10659 10656 10654 10651 10649 10648 10644 10645 10646 10648 10649 10650 10648 10647 10643 10640 10637 10635 10634
10675 10678 10674 10684 10686 10689 10687 10687 10686 10686 10684 10681 10677 10677 10676 10675 10673 10669 10665 10665 10664 10663 10663 10664 10661 10657 10655 10653 10650 10649 10648 10645 10644 10646 10648 10651 10652 10652 10651 10649 10647 10645 10645 10644
10666 10670 10665 10674 10680 10682 10681 10681 10679 10680 10678 10674 10671 10671 10671 10671 10668 10664 10663 10662 10661 10662 10662 10661 10660 10656 10655 10652 10650 10649 10648 10645 10643 10645 10649 10652 10654 10655 10656 10656 10654 10652 10654 10653
10655 10661 10659 10666 10674 10673 10678 10674 10672 10672 10671 10671 10667 10666 10668 10666 10663 10659 10659 10659 10659 10659 10660 10660 10658 10656 10654 10651 10650 10649 10647 10646 10643 10644 10649 10653 10656 10657 10661 10661 10661 10660 10660 10663
10642 10646 10653 10659 10666 10669 10670 10665 10669 10667 10667 10664 10661 10661 10663 10661 10658 10655 10656 10656 10657 10656 10658 10658 10658 10656 10653 10651 10649 10649 10648 10646 10644 10644 10649 10653 10657 10660 10663 10665 10666 10667 10667 10668
10629 10638 10644 10650 10662 10660 10657 10660 10664 10663 10661 10657 10653 10656 10656 10655 10653 10651 10652 10654 10655 10654 10656 10656 10657 10655 10653 10651 10650 10650 10649 10648 10645 10645 10649 10653 10658 10661 10664 10667 10670 10672 10674 10674
10608 10623 10640 10647 10646 10645 10653 10656 10657 10656 10655 10652 10647 10650 10652 10650 10649 10648 10650 10652 10652 10652 10654 10655 10657 10656 10653 10651 10650 10650 10651 10650 10647 10646 10649 10654 10658 10662 10665 10669 10672 10675 10677 10680
10598 10616 10627 10634 10633 10634 10645 10649 10650 10650 10647 10647 10642 10643 10648 10646 10646 10646 10645 10648 10649 10651 10653 10655 10655 10656 10654 10652 10651 10649 10651 10652 10649 10648 10650 10655 10659 10662 10666 10669 10674 10677 10679 10681
10587 10604 10613 10621 10623 10627 10636 10641 10646 10640 10638 10641 10638 10635 10640 10643 10641 10641 10641 10645 10648 10651 10652 10654 10655 10655 10655 10653 10652 10651 10651 10653 10653 10651 10652 10656 10659 10663 10666 10669 10673 10676 10679 10682
10573 10587 10597 10608 10612 10612 10635 10635 10633 10630 10633 10634 10633 10628 10635 10637 10637 10638 10638 10641 10645 10647 10649 10651 10652 10653 10654 10654 10654 10652 10652 10653 10655 10654 10654 10656 10659 10663 10666 10669 10671 10674 10677 10680
10555 10568 10580 10589 10594 10612 10625 10620 10621 10624 10625 10624 10626 10623 10628 10632 10633 10634 10635 10638 10641 10644 10646 10648 10650 10650 10653 10653 10654 10654 10653 10653 10654 10656 10656 10657 10659 10661 10665 10667 10669 10672 10674 10677
10534 10550 10563 10574 10586 10604 10611 10611 10611 10613 10615 10618 10621 10618 10623 10627 10627 10627 10630 10633 10638 10641 10645 10645 10647 10649 10649 10651 10652 10654 10653 10653 10654 10655 10656 10657 10659 10661 10663 10665 10668 10670 10672 10674
10515 10529 10542 10564 10575 10594 10599 10598 10596 10601 10612 10609 10611 10611 10615 10622 10622 10619 10624 10630 10633 10637 10641 10643 10643 10644 10646 10647 10649 10650 10653 10653 10653 10654 10656 10657 10658 10660 10663 10665 10667 10669 10670 10672
10499 10509 10529 10548 10562 10580 10586 10587 10589 10596 10601 10595 10602 10606 10609 10615 10611 10615 10621 10625 10628 10631 10635 10639 10639 10640 10643 10643 10645 10647 10650 10652 10652 10653 10654 10656 10657 10658 10660 10663 10665 10667 10669 10670
10482 10495 10515 10530 10550 10569 10574 10577 10584 10582 10581 10584 10593 10599 10601 10605 10604 10610 10615 10617 10621 10625 10629 10632 10635 10638 10639 10641 10643 10643 10646 10648 10649 10651 10652 10653 10654 10656 10658 10659 10661 10663 10665 10666
10460 10481 10504 10517 10544 10551 10558 10564 10565 10568 10569 10571 10581 10590 10594 10597 10598 10602 10607 10610 10614 10618 10622 10626 10630 10635 10636 10637 10640 10640 10641 10642 10646 10648 10650 10651 10652 10653 10655 10656 10657 10660 10662 10663
10446 10460 10478 10494 10524 10534 10540 10545 10551 10554 10556 10557 10570 10579 10584 10587 10593 10595 10599 10604 10607 10612 10617 10621 10625 10627 10631 10633 10635 10639 10637 10638 10640 10644 10646 10647 10648 10649 10650 10651 10653 10655 10657 10659
10428 10439 10459 10482 10501 10511 10522 10531 10536 10544 10545 10549 10557 10563 10573 10578 10584 10587 10591 10595 10598 10606 10610 10613 10617 10620 10623 10627 10631 10633 10634 10634 10636 10639 10641 10643 10645 10645 10646 10647 10648 10649 10652 10653
10405 10422 10441 10470 10479 10493 10505 10514 10522 10531 10537 10539 10545 10550 10559 10567 10572 10577 10582 10587 10590 10597 10601 10604 10608 10612 10615 10619 10625 10627 10630 10630 10632 10634 10636 10639 10641 10642 10643 10643 10643 10644 10646 10647